Location: L�beck
(53.8752°N, 10.6787°E)
Time: 12:29:13
(UTC+02:00)

OTV 5 (USA 277) - Visible Passes

Search period start: 24 April 2018 00:00
Search period end: 04 May 2018 00:00
Orbit: 308 x 325 km, 54.5° (Epoch: 23 April)

Date Brightness Start Highest point End Pass type
(mag) Time Alt. Az. Time Alt. Az. Time Alt. Az.
24 Apr ? 21:35:58 10° W 21:38:42 84° N 21:41:25 10° E visible
24 Apr ? 23:10:21 10° W 23:12:47 68° WNW 23:12:47 68° WNW visible
25 Apr ? 21:50:29 10° W 21:53:13 74° N 21:55:49 11° E visible
25 Apr ? 23:24:50 10° W 23:26:41 37° W 23:26:41 37° W visible
26 Apr ? 22:05:00 10° W 22:07:43 79° N 22:09:40 17° E visible
26 Apr ? 23:39:23 10° W 23:40:32 21° W 23:40:32 21° W visible
27 Apr ? 22:19:29 10° WNW 22:22:14 80° SSW 22:23:30 27° ESE visible
27 Apr ? 23:54:05 10° W 23:54:22 12° W 23:54:22 12° W visible
28 Apr ? 22:34:00 10° W 22:36:39 50° SSW 22:37:20 38° SSE visible
29 Apr ? 22:48:35 10° W 22:51:01 29° SSW 22:51:10 28° SSW visible
30 Apr ? 21:28:37 10° WNW 21:31:21 65° SSW 21:34:02 10° ESE visible
30 Apr ? 23:03:28 10° W 23:05:01 16° SW 23:05:01 16° SW visible
01 May ? 21:43:10 10° W 21:45:44 38° SSW 21:48:02 12° SE visible
02 May ? 21:57:51 10° W 22:00:03 22° SW 22:01:56 12° SSE visible
03 May ? 22:13:08 10° WSW 22:14:16 12° SW 22:15:23 10° SSW visible
